Location: Ipswich
(52.0579°N, 1.1528°E)
Time: 10:25:14
(UTC+01:00)

ISS - Pass Details

Date: 11 May 2026
Orbit: 414 x 424 km, 51.6° (Epoch: 8 May)

Event Time Altitude Azimuth Distance (km) Brightness Sun altitude
Rises 00:41:09 0° 277° (W) 2,356 0.2 -20.1°
Reaches altitude 10° 00:43:15 10° 275° (W) 1,493 -0.9 -20.1°
Enters shadow 00:45:08 31° 270° (W) 762 -2.5 -20.1°
